Time,TemperatureF,DewpointF,PressureIn,WindDirection,WindDirectionDegrees,WindSpeedMPH,WindSpeedGustMPH,Humidity,HourlyPrecipIn,Conditions,Clouds,dailyrainin,SoftwareType,DateUTC
2013-04-18 00:00:00,30.1,24.1,30.24,North,0,0.0,0.0,78,0.00,,---,0.00,VWS V14.01,2013-04-18 07:00:00,
2013-04-18 01:00:00,28.5,22.5,30.24,North,0,0.0,0.0,78,0.00,,---,0.00,VWS V14.01,2013-04-18 08:00:00,
2013-04-18 02:00:00,27.7,23.5,30.23,North,0,0.0,0.0,84,0.00,,---,0.00,VWS V14.01,2013-04-18 09:00:00,
2013-04-18 03:00:00,26.9,23.0,30.22,North,0,0.0,0.0,85,0.00,,---,0.00,VWS V14.01,2013-04-18 10:00:00,
2013-04-18 04:00:00,26.7,22.5,30.22,North,0,0.0,0.0,84,0.00,,---,0.00,VWS V14.01,2013-04-18 11:00:00,
2013-04-18 05:00:00,26.1,22.2,30.23,North,0,0.0,0.0,85,0.00,,---,0.00,VWS V14.01,2013-04-18 12:00:00,
2013-04-18 06:00:00,25.2,21.9,30.23,North,0,0.0,0.0,87,0.00,,---,0.00,VWS V14.01,2013-04-18 13:00:00,
2013-04-18 07:29:00,32.3,26.8,30.25,WSW,242,2.0,2.0,80,0.00,,---,0.00,VWS V14.01,2013-04-18 14:29:00,
2013-04-18 07:34:00,32.6,26.8,30.25,WSW,242,1.0,3.0,79,0.00,,---,0.00,VWS V14.01,2013-04-18 14:34:00,
2013-04-18 07:39:00,33.2,27.4,30.25,SW,221,0.0,5.0,79,0.00,,---,0.00,VWS V14.01,2013-04-18 14:39:00,
2013-04-18 07:44:00,33.7,27.9,30.25,South,178,1.0,5.0,79,0.00,,---,0.00,VWS V14.01,2013-04-18 14:44:00,
2013-04-18 07:49:00,34.3,28.2,30.25,SW,232,0.0,5.0,78,0.00,,---,0.00,VWS V14.01,2013-04-18 14:49:00,
2013-04-18 07:54:00,34.6,28.5,30.25,South,181,0.0,5.0,78,0.00,,---,0.00,VWS V14.01,2013-04-18 14:54:00,
2013-04-18 07:59:00,35.0,28.9,30.25,SSE,154,0.0,5.0,78,0.00,,---,0.00,VWS V14.01,2013-04-18 14:59:00,
2013-04-18 08:04:00,35.4,29.5,30.24,SE,137,2.0,5.0,79,0.00,,---,0.00,VWS V14.01,2013-04-18 15:04:00,
2013-04-18 08:09:00,36.0,29.8,30.24,SSE,161,1.0,6.0,78,0.00,,---,0.00,VWS V14.01,2013-04-18 15:09:00,
2013-04-18 08:14:00,36.6,30.4,30.25,SSW,211,1.0,6.0,78,0.00,,---,0.00,VWS V14.01,2013-04-18 15:14:00,
2013-04-18 08:19:00,37.3,30.8,30.25,SSW,199,3.0,6.0,77,0.00,,---,0.00,VWS V14.01,2013-04-18 15:19:00,
2013-04-18 08:24:00,38.0,31.1,30.25,SW,218,4.0,6.0,76,0.00,,---,0.00,VWS V14.01,2013-04-18 15:24:00,
2013-04-18 08:29:00,38.3,30.8,30.25,SSW,193,0.0,7.0,74,0.00,,---,0.00,VWS V14.01,2013-04-18 15:29:00,
2013-04-18 08:34:00,38.4,30.9,30.25,SSE,163,0.0,9.0,74,0.00,,---,0.00,VWS V14.01,2013-04-18 15:34:00,
2013-04-18 08:39:00,39.0,31.8,30.24,South,178,4.0,9.0,75,0.00,,---,0.00,VWS V14.01,2013-04-18 15:39:00,
2013-04-18 08:44:00,39.7,31.4,30.24,West,263,2.0,9.0,72,0.00,,---,0.00,VWS V14.01,2013-04-18 15:44:00,
2013-04-18 08:49:00,40.3,31.3,30.25,SSW,202,2.0,9.0,70,0.00,,---,0.00,VWS V14.01,2013-04-18 15:49:00,
2013-04-18 08:54:00,40.9,31.9,30.25,SSW,210,4.0,9.0,70,0.00,,---,0.00,VWS V14.01,2013-04-18 15:54:00,
2013-04-18 08:59:00,41.1,30.6,30.25,South,180,5.0,9.0,66,0.00,,---,0.00,VWS V14.01,2013-04-18 15:59:00,
2013-04-18 09:04:00,41.6,32.6,30.25,SW,218,3.0,7.0,70,0.00,,---,0.00,VWS V14.01,2013-04-18 16:04:00,
2013-04-18 09:09:00,42.5,32.3,30.25,SSE,161,4.0,7.0,67,0.00,,---,0.00,VWS V14.01,2013-04-18 16:09:00,
2013-04-18 09:14:00,42.8,32.2,30.24,South,189,4.0,7.0,66,0.00,,---,0.00,VWS V14.01,2013-04-18 16:14:00,
2013-04-18 09:19:00,43.1,32.2,30.24,SSW,204,5.0,8.0,65,0.00,,---,0.00,VWS V14.01,2013-04-18 16:19:00,
2013-04-18 09:24:00,44.1,32.7,30.25,South,187,5.0,8.0,64,0.00,,---,0.00,VWS V14.01,2013-04-18 16:24:00,
2013-04-18 09:29:00,44.5,32.7,30.25,South,173,0.0,8.0,63,0.00,,---,0.00,VWS V14.01,2013-04-18 16:29:00,
2013-04-18 09:34:00,45.2,32.2,30.25,South,176,2.0,8.0,60,0.00,,---,0.00,VWS V14.01,2013-04-18 16:34:00,
2013-04-18 09:39:00,45.0,32.8,30.25,SW,228,4.0,8.0,62,0.00,,---,0.00,VWS V14.01,2013-04-18 16:39:00,
2013-04-18 09:44:00,45.6,33.3,30.25,SSE,153,2.0,9.0,62,0.00,,---,0.00,VWS V14.01,2013-04-18 16:44:00,
2013-04-18 09:49:00,46.6,33.5,30.25,SSW,208,8.0,9.0,60,0.00,,---,0.00,VWS V14.01,2013-04-18 16:49:00,
2013-04-18 09:54:00,46.4,33.7,30.25,SSE,161,2.0,9.0,61,0.00,,---,0.00,VWS V14.01,2013-04-18 16:54:00,
2013-04-18 09:59:00,47.0,33.8,30.25,West,278,3.0,11.0,60,0.00,,---,0.00,VWS V14.01,2013-04-18 16:59:00,
2013-04-18 10:04:00,47.4,33.8,30.25,SSW,207,2.0,8.0,59,0.00,,---,0.00,VWS V14.01,2013-04-18 17:04:00,
2013-04-18 10:09:00,47.2,33.2,30.25,South,170,1.0,8.0,58,0.00,,---,0.00,VWS V14.01,2013-04-18 17:09:00,
2013-04-18 10:14:00,47.0,32.1,30.25,West,265,3.0,9.0,56,0.00,,---,0.00,VWS V14.01,2013-04-18 17:14:00,
2013-04-18 10:19:00,47.5,34.3,30.25,SW,226,6.0,9.0,60,0.00,,---,0.00,VWS V14.01,2013-04-18 17:19:00,
2013-04-18 10:24:00,47.6,33.6,30.25,SSW,200,0.0,9.0,58,0.00,,---,0.00,VWS V14.01,2013-04-18 17:24:00,
2013-04-18 10:29:00,47.5,33.5,30.25,South,171,4.0,9.0,58,0.00,,---,0.00,VWS V14.01,2013-04-18 17:29:00,
2013-04-18 10:34:00,47.8,35.0,30.25,WSW,245,0.0,9.0,61,0.00,,---,0.00,VWS V14.01,2013-04-18 17:34:00,
2013-04-18 10:39:00,48.1,33.6,30.25,WSW,242,8.0,9.0,57,0.00,,---,0.00,VWS V14.01,2013-04-18 17:39:00,
2013-04-18 10:44:00,48.0,33.9,30.25,SW,223,3.0,9.0,58,0.00,,---,0.00,VWS V14.01,2013-04-18 17:44:00,
2013-04-18 10:49:00,48.3,33.8,30.25,SW,218,4.0,9.0,57,0.00,,---,0.00,VWS V14.01,2013-04-18 17:49:00,
2013-04-18 10:54:00,48.4,34.3,30.25,West,267,5.0,9.0,58,0.00,,---,0.00,VWS V14.01,2013-04-18 17:54:00,
2013-04-18 10:59:00,49.4,35.3,30.25,South,171,2.0,9.0,58,0.00,,---,0.00,VWS V14.01,2013-04-18 17:59:00,
2013-04-18 11:04:00,49.2,35.1,30.25,WSW,241,1.0,9.0,58,0.00,,---,0.00,VWS V14.01,2013-04-18 18:04:00,
2013-04-18 11:09:00,49.9,35.3,30.24,NW,326,5.0,9.0,57,0.00,,---,0.00,VWS V14.01,2013-04-18 18:09:00,
2013-04-18 11:14:00,49.6,32.7,30.24,WSW,244,5.0,9.0,52,0.00,,---,0.00,VWS V14.01,2013-04-18 18:14:00,
2013-04-18 11:19:00,50.4,35.8,30.24,WSW,250,5.0,9.0,57,0.00,,---,0.00,VWS V14.01,2013-04-18 18:19:00,
2013-04-18 11:24:00,49.7,32.8,30.24,SW,229,9.0,13.0,52,0.00,,---,0.00,VWS V14.01,2013-04-18 18:24:00,
2013-04-18 11:29:00,49.9,34.4,30.24,SW,218,2.0,13.0,55,0.00,,---,0.00,VWS V14.01,2013-04-18 18:29:00,
2013-04-18 11:34:00,50.1,34.6,30.24,SSE,161,4.0,13.0,55,0.00,,---,0.00,VWS V14.01,2013-04-18 18:34:00,
2013-04-18 11:39:00,50.8,33.3,30.24,SSW,202,6.0,13.0,51,0.00,,---,0.00,VWS V14.01,2013-04-18 18:39:00,
2013-04-18 11:44:00,50.9,33.9,30.24,SW,234,6.0,13.0,52,0.00,,---,0.00,VWS V14.01,2013-04-18 18:44:00,
2013-04-18 11:49:00,50.9,34.4,30.24,WNW,290,5.0,13.0,53,0.00,,---,0.00,VWS V14.01,2013-04-18 18:49:00,
2013-04-18 11:54:00,51.3,34.3,30.24,SW,234,2.0,13.0,52,0.00,,---,0.00,VWS V14.01,2013-04-18 18:54:00,
2013-04-18 11:59:00,50.6,34.6,30.24,SW,219,4.0,13.0,54,0.00,,---,0.00,VWS V14.01,2013-04-18 18:59:00,
2013-04-18 12:04:00,50.6,34.6,30.24,SSW,206,3.0,7.0,54,0.00,,---,0.00,VWS V14.01,2013-04-18 19:04:00,
2013-04-18 12:09:00,50.4,34.9,30.23,SSE,166,2.0,9.0,55,0.00,,---,0.00,VWS V14.01,2013-04-18 19:09:00,
2013-04-18 12:14:00,52.5,36.8,30.23,SW,220,1.0,9.0,55,0.00,,---,0.00,VWS V14.01,2013-04-18 19:14:00,
2013-04-18 12:19:00,51.9,34.8,30.23,South,188,3.0,9.0,52,0.00,,---,0.00,VWS V14.01,2013-04-18 19:19:00,
2013-04-18 12:24:00,52.5,34.9,30.23,SSW,192,2.0,10.0,51,0.00,,---,0.00,VWS V14.01,2013-04-18 19:24:00,
2013-04-18 12:29:00,53.5,36.3,30.23,South,169,0.0,10.0,52,0.00,,---,0.00,VWS V14.01,2013-04-18 19:29:00,
2013-04-18 12:34:00,52.7,34.6,30.23,WSW,257,2.0,11.0,50,0.00,,---,0.00,VWS V14.01,2013-04-18 19:34:00,
2013-04-18 12:39:00,53.6,35.4,30.22,SSW,194,3.0,11.0,50,0.00,,---,0.00,VWS V14.01,2013-04-18 19:39:00,
2013-04-18 12:44:00,53.8,36.1,30.22,WSW,246,8.0,11.0,51,0.00,,---,0.00,VWS V14.01,2013-04-18 19:44:00,
2013-04-18 12:49:00,52.4,34.3,30.22,SW,227,4.0,11.0,50,0.00,,---,0.00,VWS V14.01,2013-04-18 19:49:00,
2013-04-18 12:54:00,53.2,35.1,30.22,SSE,160,4.0,11.0,50,0.00,,---,0.00,VWS V14.01,2013-04-18 19:54:00,
2013-04-18 12:59:00,54.1,36.4,30.22,WNW,300,2.0,11.0,51,0.00,,---,0.00,VWS V14.01,2013-04-18 19:59:00,
2013-04-18 13:04:00,52.6,34.5,30.22,WSW,243,3.0,6.0,50,0.00,,---,0.00,VWS V14.01,2013-04-18 20:04:00,
2013-04-18 13:09:00,52.4,35.3,30.22,West,278,3.0,8.0,52,0.00,,---,0.00,VWS V14.01,2013-04-18 20:09:00,
2013-04-18 13:14:00,54.2,35.0,30.21,South,181,5.0,9.0,48,0.00,,---,0.00,VWS V14.01,2013-04-18 20:14:00,
2013-04-18 13:19:00,52.6,33.5,30.21,SSE,163,7.0,13.0,48,0.00,,---,0.00,VWS V14.01,2013-04-18 20:19:00,
2013-04-18 13:24:00,52.4,34.3,30.21,South,184,2.0,13.0,50,0.00,,---,0.00,VWS V14.01,2013-04-18 20:24:00,
2013-04-18 13:29:00,54.3,35.0,30.21,West,259,5.0,13.0,48,0.00,,---,0.00,VWS V14.01,2013-04-18 20:29:00,
2013-04-18 13:34:00,53.4,34.2,30.22,SSE,158,9.0,14.0,48,0.00,,---,0.00,VWS V14.01,2013-04-18 20:34:00,
2013-04-18 13:39:00,53.0,33.8,30.21,SW,223,4.0,14.0,48,0.00,,---,0.00,VWS V14.01,2013-04-18 20:39:00,
2013-04-18 13:44:00,53.5,33.2,30.22,SSW,207,0.0,14.0,46,0.00,,---,0.00,VWS V14.01,2013-04-18 20:44:00,
2013-04-18 13:49:00,52.9,33.2,30.21,SSW,213,2.0,14.0,47,0.00,,---,0.00,VWS V14.01,2013-04-18 20:49:00,
2013-04-18 13:54:00,53.5,35.3,30.22,West,272,4.0,14.0,50,0.00,,---,0.00,VWS V14.01,2013-04-18 20:54:00,
2013-04-18 13:59:00,53.5,34.8,30.21,SSW,209,6.0,14.0,49,0.00,,---,0.00,VWS V14.01,2013-04-18 20:59:00,
2013-04-18 14:04:00,52.6,34.5,30.21,WSW,239,9.0,9.0,50,0.00,,---,0.00,VWS V14.01,2013-04-18 21:04:00,
2013-04-18 14:09:00,52.9,34.3,30.21,SW,219,7.0,9.0,49,0.00,,---,0.00,VWS V14.01,2013-04-18 21:09:00,
2013-04-18 14:14:00,53.1,35.5,30.21,WSW,247,1.0,9.0,51,0.00,,---,0.00,VWS V14.01,2013-04-18 21:14:00,
2013-04-18 14:19:00,53.4,35.7,30.21,SW,229,0.0,9.0,51,0.00,,---,0.00,VWS V14.01,2013-04-18 21:19:00,
2013-04-18 14:24:00,53.6,34.9,30.20,SSW,202,1.0,9.0,49,0.00,,---,0.00,VWS V14.01,2013-04-18 21:24:00,
2013-04-18 14:29:00,54.0,34.8,30.20,SW,230,8.0,9.0,48,0.00,,---,0.00,VWS V14.01,2013-04-18 21:29:00,
2013-04-18 14:34:00,53.7,34.5,30.20,SW,233,3.0,9.0,48,0.00,,---,0.00,VWS V14.01,2013-04-18 21:34:00,
2013-04-18 14:39:00,53.3,35.7,30.20,SW,234,9.0,9.0,51,0.00,,---,0.00,VWS V14.01,2013-04-18 21:39:00,
2013-04-18 14:44:00,53.1,34.0,30.20,South,190,7.0,9.0,48,0.00,,---,0.00,VWS V14.01,2013-04-18 21:44:00,
2013-04-18 14:49:00,53.3,35.7,30.20,SW,223,6.0,9.0,51,0.00,,---,0.00,VWS V14.01,2013-04-18 21:49:00,
2013-04-18 14:54:00,53.2,34.0,30.20,SSW,213,5.0,9.0,48,0.00,,---,0.00,VWS V14.01,2013-04-18 21:54:00,
2013-04-18 14:59:00,53.2,36.0,30.20,SE,144,0.0,9.0,52,0.00,,---,0.00,VWS V14.01,2013-04-18 21:59:00,
2013-04-18 15:04:00,54.1,35.4,30.19,SSW,213,2.0,7.0,49,0.00,,---,0.00,VWS V14.01,2013-04-18 22:04:00,
2013-04-18 15:09:00,54.2,36.0,30.19,SSW,212,2.0,9.0,50,0.00,,---,0.00,VWS V14.01,2013-04-18 22:09:00,
2013-04-18 15:14:00,53.2,35.1,30.19,WSW,240,4.0,9.0,50,0.00,,---,0.00,VWS V14.01,2013-04-18 22:14:00,
2013-04-18 15:19:00,54.2,36.5,30.19,South,178,5.0,13.0,51,0.00,,---,0.00,VWS V14.01,2013-04-18 22:19:00,
2013-04-18 15:24:00,53.6,35.9,30.19,SW,233,4.0,13.0,51,0.00,,---,0.00,VWS V14.01,2013-04-18 22:24:00,
2013-04-18 15:29:00,54.0,35.3,30.19,SSW,207,0.0,13.0,49,0.00,,---,0.00,VWS V14.01,2013-04-18 22:29:00,
2013-04-18 15:34:00,53.7,35.5,30.19,SSW,213,4.0,13.0,50,0.00,,---,0.00,VWS V14.01,2013-04-18 22:34:00,
2013-04-18 15:39:00,53.7,35.0,30.19,SW,230,0.0,13.0,49,0.00,,---,0.00,VWS V14.01,2013-04-18 22:39:00,
2013-04-18 15:44:00,53.5,35.3,30.18,SW,219,5.0,13.0,50,0.00,,---,0.00,VWS V14.01,2013-04-18 22:44:00,
2013-04-18 15:49:00,53.2,34.0,30.18,SSW,211,2.0,13.0,48,0.00,,---,0.00,VWS V14.01,2013-04-18 22:49:00,
2013-04-18 15:54:00,53.1,35.5,30.18,SSW,207,5.0,13.0,51,0.00,,---,0.00,VWS V14.01,2013-04-18 22:54:00,
2013-04-18 15:59:00,53.1,34.5,30.18,SSW,207,6.0,13.0,49,0.00,,---,0.00,VWS V14.01,2013-04-18 22:59:00,
2013-04-18 16:04:00,52.7,35.1,30.18,SSE,165,1.0,8.0,51,0.00,,---,0.00,VWS V14.01,2013-04-18 23:04:00,
2013-04-18 16:09:00,52.9,35.3,30.18,South,175,6.0,8.0,51,0.00,,---,0.00,VWS V14.01,2013-04-18 23:09:00,
2013-04-18 16:14:00,52.8,36.2,30.18,SW,234,4.0,8.0,53,0.00,,---,0.00,VWS V14.01,2013-04-18 23:14:00,
2013-04-18 16:19:00,52.6,34.5,30.18,SSW,196,2.0,8.0,50,0.00,,---,0.00,VWS V14.01,2013-04-18 23:19:00,
2013-04-18 16:24:00,52.6,34.5,30.17,SW,227,1.0,8.0,50,0.00,,---,0.00,VWS V14.01,2013-04-18 23:24:00,
2013-04-18 16:29:00,52.7,35.1,30.17,SSW,200,2.0,8.0,51,0.00,,---,0.00,VWS V14.01,2013-04-18 23:29:00,
2013-04-18 16:34:00,52.7,34.6,30.17,SW,219,2.0,8.0,50,0.00,,---,0.00,VWS V14.01,2013-04-18 23:34:00,
2013-04-18 16:39:00,52.9,34.8,30.17,WSW,241,6.0,8.0,50,0.00,,---,0.00,VWS V14.01,2013-04-18 23:39:00,
2013-04-18 16:44:00,52.9,35.3,30.17,South,190,0.0,8.0,51,0.00,,---,0.00,VWS V14.01,2013-04-18 23:44:00,
2013-04-18 16:49:00,52.9,35.8,30.17,SW,233,4.0,8.0,52,0.00,,---,0.00,VWS V14.01,2013-04-18 23:49:00,
2013-04-18 16:54:00,52.7,35.1,30.17,SW,221,3.0,8.0,51,0.00,,---,0.00,VWS V14.01,2013-04-18 23:54:00,
2013-04-18 16:59:00,52.7,35.6,30.17,SSW,192,3.0,9.0,52,0.00,,---,0.00,VWS V14.01,2013-04-18 23:59:00,
2013-04-18 17:04:00,52.7,35.6,30.17,South,169,1.0,5.0,52,0.00,,---,0.00,VWS V14.01,2013-04-19 00:04:00,
2013-04-18 17:09:00,52.8,35.7,30.17,SSE,163,4.0,5.0,52,0.00,,---,0.00,VWS V14.01,2013-04-19 00:09:00,
2013-04-18 17:14:00,52.8,35.7,30.17,SSW,208,5.0,6.0,52,0.00,,---,0.00,VWS V14.01,2013-04-19 00:14:00,
2013-04-18 17:19:00,52.6,36.0,30.17,WSW,244,3.0,9.0,53,0.00,,---,0.00,VWS V14.01,2013-04-19 00:19:00,
2013-04-18 17:24:00,52.7,36.1,30.16,SW,229,2.0,9.0,53,0.00,,---,0.00,VWS V14.01,2013-04-19 00:24:00,
2013-04-18 17:29:00,52.7,37.0,30.16,SSW,195,3.0,9.0,55,0.00,,---,0.00,VWS V14.01,2013-04-19 00:29:00,
2013-04-18 17:34:00,52.6,36.5,30.16,SE,143,7.0,9.0,54,0.00,,---,0.00,VWS V14.01,2013-04-19 00:34:00,
2013-04-18 17:39:00,52.4,35.8,30.16,SSW,205,7.0,9.0,53,0.00,,---,0.00,VWS V14.01,2013-04-19 00:39:00,
2013-04-18 17:44:00,52.1,35.5,30.16,SW,214,4.0,9.0,53,0.00,,---,0.00,VWS V14.01,2013-04-19 00:44:00,
2013-04-18 17:49:00,52.0,36.8,30.16,SW,233,4.0,9.0,56,0.00,,---,0.00,VWS V14.01,2013-04-19 00:49:00,
2013-04-18 17:54:00,51.7,36.1,30.16,SW,229,3.0,9.0,55,0.00,,---,0.00,VWS V14.01,2013-04-19 00:54:00,
2013-04-18 17:59:00,51.4,36.2,30.16,SSE,158,4.0,10.0,56,0.00,,---,0.00,VWS V14.01,2013-04-19 00:59:00,
2013-04-18 18:04:00,51.3,37.0,30.16,SSW,202,7.0,7.0,58,0.00,,---,0.00,VWS V14.01,2013-04-19 01:04:00,
2013-04-18 18:09:00,51.3,37.0,30.16,SSW,209,3.0,7.0,58,0.00,,---,0.00,VWS V14.01,2013-04-19 01:09:00,
2013-04-18 18:14:00,51.3,36.6,30.16,SSW,194,2.0,7.0,57,0.00,,---,0.00,VWS V14.01,2013-04-19 01:14:00,
2013-04-18 18:19:00,51.2,37.0,30.16,SE,141,7.0,7.0,58,0.00,,---,0.00,VWS V14.01,2013-04-19 01:19:00,
2013-04-18 18:24:00,51.1,36.4,30.16,South,186,4.0,9.0,57,0.00,,---,0.00,VWS V14.01,2013-04-19 01:24:00,
2013-04-18 18:29:00,51.0,36.8,30.15,South,174,2.0,9.0,58,0.00,,---,0.00,VWS V14.01,2013-04-19 01:29:00,
2013-04-18 18:34:00,50.9,36.7,30.15,SSE,159,4.0,9.0,58,0.00,,---,0.00,VWS V14.01,2013-04-19 01:34:00,
2013-04-18 18:39:00,50.8,37.0,30.15,South,190,5.0,9.0,59,0.00,,---,0.00,VWS V14.01,2013-04-19 01:39:00,
2013-04-18 18:44:00,50.7,36.9,30.15,South,178,1.0,9.0,59,0.00,,---,0.00,VWS V14.01,2013-04-19 01:44:00,
2013-04-18 18:49:00,50.6,36.8,30.15,South,186,8.0,9.0,59,0.00,,---,0.00,VWS V14.01,2013-04-19 01:49:00,
2013-04-18 18:54:00,50.6,36.4,30.15,SSW,201,3.0,9.0,58,0.00,,---,0.00,VWS V14.01,2013-04-19 01:54:00,
2013-04-18 18:59:00,50.5,36.7,30.15,SSE,167,1.0,9.0,59,0.00,,---,0.00,VWS V14.01,2013-04-19 01:59:00,
2013-04-18 19:04:00,50.4,36.2,30.15,SSW,197,0.0,5.0,58,0.00,,---,0.00,VWS V14.01,2013-04-19 02:04:00,
2013-04-18 19:09:00,50.3,36.5,30.14,WSW,244,2.0,5.0,59,0.00,,---,0.00,VWS V14.01,2013-04-19 02:09:00,
2013-04-18 19:14:00,50.2,36.4,30.14,SSW,199,5.0,6.0,59,0.00,,---,0.00,VWS V14.01,2013-04-19 02:14:00,
2013-04-18 19:19:00,50.1,36.3,30.14,SSW,197,0.0,7.0,59,0.00,,---,0.00,VWS V14.01,2013-04-19 02:19:00,
2013-04-18 19:24:00,49.9,36.2,30.14,South,173,4.0,7.0,59,0.00,,---,0.00,VWS V14.01,2013-04-19 02:24:00,
2013-04-18 19:29:00,49.9,36.2,30.14,South,170,4.0,7.0,59,0.00,,---,0.00,VWS V14.01,2013-04-19 02:29:00,
2013-04-18 19:34:00,49.7,36.0,30.13,South,190,1.0,7.0,59,0.00,,---,0.00,VWS V14.01,2013-04-19 02:34:00,
2013-04-18 19:39:00,49.5,36.2,30.13,SSW,205,2.0,7.0,60,0.00,,---,0.00,VWS V14.01,2013-04-19 02:39:00,
2013-04-18 19:44:00,49.5,36.6,30.13,SSW,198,0.0,7.0,61,0.00,,---,0.00,VWS V14.01,2013-04-19 02:44:00,
2013-04-18 19:49:00,49.4,36.1,30.13,SSW,198,0.0,7.0,60,0.00,,---,0.00,VWS V14.01,2013-04-19 02:49:00,
2013-04-18 19:54:00,49.3,36.4,30.13,South,179,0.0,7.0,61,0.00,,---,0.00,VWS V14.01,2013-04-19 02:54:00,
2013-04-18 19:59:00,49.0,36.6,30.13,SSW,203,4.0,7.0,62,0.00,,---,0.00,VWS V14.01,2013-04-19 02:59:00,
2013-04-18 20:04:00,49.0,36.2,30.13,SSW,203,0.0,2.0,61,0.00,,---,0.00,VWS V14.01,2013-04-19 03:04:00,
2013-04-18 20:09:00,48.9,36.9,30.13,SSW,203,1.0,4.0,63,0.00,,---,0.00,VWS V14.01,2013-04-19 03:09:00,
2013-04-18 20:14:00,48.9,36.5,30.12,SSW,203,0.0,4.0,62,0.00,,---,0.00,VWS V14.01,2013-04-19 03:14:00,
2013-04-18 20:19:00,48.8,36.4,30.13,SSW,203,0.0,4.0,62,0.00,,---,0.00,VWS V14.01,2013-04-19 03:19:00,
2013-04-18 20:23:00,48.7,36.7,30.13,SSW,203,1.0,4.0,63,0.00,,---,0.00,VWS V14.01,2013-04-19 03:23:00,
2013-04-18 20:28:00,48.8,36.8,30.13,SSW,203,2.0,4.0,63,0.00,,---,0.00,VWS V14.01,2013-04-19 03:28:00,
2013-04-18 20:33:00,48.7,37.1,30.13,SSW,203,0.0,4.0,64,0.00,,---,0.00,VWS V14.01,2013-04-19 03:33:00,
2013-04-18 20:38:00,48.6,37.4,30.13,SSE,167,1.0,5.0,65,0.00,,---,0.00,VWS V14.01,2013-04-19 03:38:00,
2013-04-18 20:43:00,48.6,37.4,30.13,SSE,167,0.0,5.0,65,0.00,,---,0.00,VWS V14.01,2013-04-19 03:43:00,
2013-04-18 20:48:00,48.4,37.2,30.13,SSE,168,2.0,5.0,65,0.00,,---,0.00,VWS V14.01,2013-04-19 03:48:00,
2013-04-18 20:53:00,48.4,37.6,30.12,SW,220,3.0,5.0,66,0.00,,---,0.00,VWS V14.01,2013-04-19 03:53:00,
2013-04-18 20:58:00,48.1,38.0,30.13,SW,220,0.0,5.0,68,0.00,,---,0.00,VWS V14.01,2013-04-19 03:58:00,
2013-04-18 21:01:00,48.0,38.0,30.12,SW,220,0.0,5.0,68,0.00,,---,0.00,VWS V14.01,2013-04-19 04:01:00,
2013-04-18 21:06:00,47.9,37.9,30.12,South,173,1.0,6.0,68,0.00,,---,0.00,VWS V14.01,2013-04-19 04:06:00,
2013-04-18 21:11:00,47.8,38.5,30.12,South,181,0.0,6.0,70,0.00,,---,0.00,VWS V14.01,2013-04-19 04:11:00,
2013-04-18 21:16:00,47.9,37.9,30.12,SSW,195,0.0,8.0,68,0.00,,---,0.00,VWS V14.01,2013-04-19 04:16:00,
2013-04-18 21:21:00,47.8,38.1,30.12,South,182,1.0,8.0,69,0.00,,---,0.00,VWS V14.01,2013-04-19 04:21:00,
2013-04-18 21:26:00,47.7,38.4,30.12,South,189,5.0,8.0,70,0.00,,---,0.00,VWS V14.01,2013-04-19 04:26:00,
2013-04-18 21:31:00,47.6,38.3,30.12,South,177,2.0,10.0,70,0.00,,---,0.00,VWS V14.01,2013-04-19 04:31:00,
2013-04-18 21:36:00,47.4,38.1,30.12,South,177,1.0,10.0,70,0.00,,---,0.00,VWS V14.01,2013-04-19 04:36:00,
2013-04-18 21:41:00,47.3,37.7,30.12,SSW,213,0.0,10.0,69,0.00,,---,0.00,VWS V14.01,2013-04-19 04:41:00,
2013-04-18 21:46:00,47.2,37.6,30.12,SSW,193,0.0,10.0,69,0.00,,---,0.00,VWS V14.01,2013-04-19 04:46:00,
2013-04-18 21:51:00,47.2,37.2,30.11,South,181,0.0,10.0,68,0.00,,---,0.00,VWS V14.01,2013-04-19 04:51:00,
2013-04-18 21:56:00,47.0,37.4,30.11,South,182,3.0,10.0,69,0.00,,---,0.00,VWS V14.01,2013-04-19 04:56:00,
2013-04-18 22:01:00,46.9,36.9,30.11,SSW,199,1.0,10.0,68,0.00,,---,0.00,VWS V14.01,2013-04-19 05:01:00,
2013-04-18 22:06:00,46.8,36.8,30.11,SSE,149,1.0,6.0,68,0.00,,---,0.00,VWS V14.01,2013-04-19 05:06:00,
2013-04-18 22:11:00,46.6,37.0,30.11,SSE,161,2.0,6.0,69,0.00,,---,0.00,VWS V14.01,2013-04-19 05:11:00,
2013-04-18 22:16:00,46.5,36.9,30.10,SSE,161,4.0,6.0,69,0.00,,---,0.00,VWS V14.01,2013-04-19 05:16:00,
2013-04-18 22:21:00,46.5,36.5,30.10,SSW,201,3.0,6.0,68,0.00,,---,0.00,VWS V14.01,2013-04-19 05:21:00,
2013-04-18 22:26:00,46.5,36.5,30.10,SSW,202,1.0,6.0,68,0.00,,---,0.00,VWS V14.01,2013-04-19 05:26:00,
2013-04-18 22:31:00,46.4,36.4,30.10,SSW,204,1.0,6.0,68,0.00,,---,0.00,VWS V14.01,2013-04-19 05:31:00,
2013-04-18 22:36:00,46.3,36.7,30.10,SSW,211,3.0,6.0,69,0.00,,---,0.00,VWS V14.01,2013-04-19 05:36:00,
2013-04-18 22:41:00,46.3,36.7,30.10,SSW,193,2.0,6.0,69,0.00,,---,0.00,VWS V14.01,2013-04-19 05:41:00,
2013-04-18 22:46:00,46.2,36.2,30.10,SSW,198,3.0,6.0,68,0.00,,---,0.00,VWS V14.01,2013-04-19 05:46:00,
2013-04-18 22:51:00,46.1,36.5,30.09,SSW,202,3.0,7.0,69,0.00,,---,0.00,VWS V14.01,2013-04-19 05:51:00,
2013-04-18 22:56:00,45.9,36.7,30.09,South,183,4.0,7.0,70,0.00,,---,0.00,VWS V14.01,2013-04-19 05:56:00,
2013-04-18 23:01:00,45.6,37.1,30.09,SSW,192,2.0,7.0,72,0.00,,---,0.00,VWS V14.01,2013-04-19 06:01:00,
2013-04-18 23:06:00,45.3,37.2,30.08,South,187,4.0,7.0,73,0.00,,---,0.00,VWS V14.01,2013-04-19 06:06:00,
2013-04-18 23:11:00,45.2,37.4,30.08,South,175,5.0,7.0,74,0.00,,---,0.00,VWS V14.01,2013-04-19 06:11:00,
2013-04-18 23:16:00,45.0,37.2,30.08,SSE,164,6.0,7.0,74,0.00,,---,0.00,VWS V14.01,2013-04-19 06:16:00,
2013-04-18 23:21:00,44.8,37.7,30.08,South,178,1.0,7.0,76,0.00,,---,0.00,VWS V14.01,2013-04-19 06:21:00,
2013-04-18 23:26:00,44.6,37.8,30.08,South,190,2.0,7.0,77,0.00,,---,0.00,VWS V14.01,2013-04-19 06:26:00,
2013-04-18 23:31:00,44.4,38.3,30.08,South,181,4.0,7.0,79,0.00,,---,0.00,VWS V14.01,2013-04-19 06:31:00,
2013-04-18 23:36:00,44.2,38.4,30.07,South,169,2.0,7.0,80,0.00,,---,0.00,VWS V14.01,2013-04-19 06:36:00,
2013-04-18 23:41:00,43.9,38.5,30.07,South,169,0.0,7.0,81,0.00,,---,0.00,VWS V14.01,2013-04-19 06:41:00,
2013-04-18 23:46:00,43.7,38.6,30.07,SSW,213,2.0,7.0,82,0.00,,---,0.00,VWS V14.01,2013-04-19 06:46:00,
2013-04-18 23:51:00,43.6,38.5,30.07,South,176,4.0,7.0,82,0.00,,---,0.00,VWS V14.01,2013-04-19 06:51:00,
2013-04-18 23:56:00,43.6,38.8,30.07,South,173,5.0,8.0,83,0.00,,---,0.00,VWS V14.01,2013-04-19 06:56:00,